User: anonymous   Login
Location: Caltech
(34.1382°N, 118.1253°W)
Time: 04:24:31
(UTC-07:00)
Language:

Cosmos 1939 Rocket - Orbit

View from above orbital plane
View from above orbital plane
View from above satellite
View from above satellite

Ground track
Ground track

The orbit data is extracted from the following two-line orbital elements,

1 19046U 88032B   16178.87063387  .00000253  00000-0  23574-4 0  9991
2 19046  97.5839 228.9395 0041298 102.5409 258.0440 15.01954338519306
Epoch (UTC): 26 June 2016 20:53:42
Eccentricity: 0.0041298
inclination: 97.5839°
perigee height: 532 km
apogee height: 589 km
right ascension of ascending node: 228.9395°
argument of perigee: 102.5409°
revolutions per day: 15.01954338
mean anomaly at epoch: 258.0440°
orbit number at epoch: 51930

The dashed part of the orbit path shows where the satellite is in the earth's shadow,  

DLR